Regional Weather Roundup
Issued by NWS Lake Charles, LA

Current Version | Previous Version | Text Only | Print | Product List | Glossary On
Versions: 1 2 3 4 5 6 7 8 9 10 11 12 13 14 15 16 17 18 19 20 21 22 23 24 25 26 27 28
000
ASUS44 KLCH 090410
RWRLCH
REGIONAL WEATHER ROUNDUP
NATIONAL WEATHER SERVICE LAKE CHARLES LA
1000 PM CST THU DEC 08 2016

Note: "fair" indicates few or no clouds below 12,000 feet with no
significant weather and/or obstructions to visibility.


ACROSS SOUTHEAST TEXAS

CITY           SKY/WX    TMP DP  RH WIND       PRES   REMARKS
BEAUMONT       CLOUDY    44  32  62 N15       30.54R
BEAUMONT CITY  MOCLDY    44  33  65 MISG      30.56R
ORANGE         CLOUDY    43  30  60 N9        30.55S
JASPER         MOCLDY    42  35  75 N8        30.60R
$$

ACROSS CENTRAL LOUISIANA

CITY           SKY/WX    TMP DP  RH WIND       PRES   REMARKS
LEESVILLE      CLOUDY    40  31  70 N8        30.56R
FULLERTON      FAIR      40  31  70 VRB3      30.52R
ALEXANDRIA INT PTCLDY    40  31  70 N9        30.55R
ESLER FIELD    PTCLDY    40  28  62 NE5       30.56R
DERIDDER       FAIR      40  32  71 N6        30.58R
OAKDALE        CLOUDY    42  28  57 N7        30.54R
OPELOUSAS      FAIR      41  28  60 N14G20    30.52R
$$

ACROSS SOUTHWEST AND SOUTH CENTRAL LOUISIANA

CITY           SKY/WX    TMP DP  RH WIND       PRES   REMARKS
SULPHUR        CLOUDY    45  29  54 N12G22    30.53S
LAKE CHARLES   CLOUDY    44  30  57 N15       30.52R
CHENNAULT INT  CLOUDY    43  29  59 N13G21    30.53R
CAMERON PHI    CLOUDY    45  30  57 NE22G30   30.48F
DEQUINCY       MOCLDY    41  32  69 N8        30.55R
JENNINGS       CLOUDY    43  30  61 N15       30.51S
LAFAYETTE      CLOUDY    44  32  62 N13       30.49R
NEW IBERIA     CLOUDY    45  30  55 N15       30.49R
ABBEVILLE      MOCLDY    43  34  70 N10       30.49R
PATTERSON      CLOUDY   N/A N/A N/A N20G28    30.45R
SALT POINT     NOT AVBL
$$

SELECTED SITES ACROSS THE REGION

CITY           SKY/WX    TMP DP  RH WIND       PRES   REMARKS
HOUSTON BUSH   CLOUDY    42  31  64 N17       30.57R
HOUSTON HOBBY  CLOUDY    44  32  62 N21       30.54S
GALVESTON      LGT RAIN  46  38  73 N29G38    30.53R
COLLEGE STAT   CLOUDY    37  23  56 N17       30.63S WCI  27
CONROE         CLOUDY    39  29  67 N10       30.59S
HUNTSVILLE     CLOUDY    38  26  62 N7        30.61S
LUFKIN         CLOUDY    37  27  67 VRB5      30.61R
SHREVEPORT     PTCLDY    37  25  61 N7        30.61R
MONROE         CLOUDY    38  24  57 N8        30.60R
NATCHEZ MS     PTCLDY    37  19  48 NE12G24   30.54R WCI  30
BATON ROUGE    PTCLDY    43  31  62 N9G20     30.48F
N.O. INTL ARPT MOCLDY    48  30  49 N15G24    30.46R
SLIDELL        PTCLDY    44  29  55 N12       30.45R
$$

MARINE REPORTS

STATION/POSITION TIME  SKY/WX   TEMP    WIND        PRES    VSBY
                                AIR SEA DIR/SP/G
                 (UTC)          (F)     (DEG/KT/KT) (MB)    (MI)
BUOY 30 S HIGH I 0350            49 65   10/ 25/ 31 1032.1S
WVE H/P(F/S)=  7/ 6

SEA RIM ST PARK  0400            45      10/ 16/ 19 1034.0R
PORT ARTHUR      0336               58   20/ 14/ 18 1033.8R
SABINE PASS N    0336            46 58   10/ 17/ 24 1034.5F
TEXAS POINT      NOT AVBL
CALCASIEU PASS   0348            45 56   30/ 20/ 26   N/A
LK CHARLES BEACH 0348            44 56              1034.2R
MARSH ISLAND     0300            48                   N/A
FRESH WATER LOCK 0348            45 58   20/ 12/ 17 1032.5R
AMERADA PASS     0348            48 57   10/  9/ 18 1030.1R
$$




USA.gov is the U.S. government's official web portal to all federal, state and local government web resources and services.